GFSFLT1_700_rhum_114.txt.gz
RH
25 39 35 34 42 66 61 56 28 21 20 36 28 30 59 55 48 46 26 23 23 23 24 30 31 27 27 28 25 18 19 23
23 38 36 36 45 77 69 59 29 24 22 23 26 27 41 49 42 49 46 25 24 24 25 27 29 34 32 32 32 22 18 21
34 39 39 36 34 34 38 54 30 27 24 25 35 43 50 40 45 47 48 50 41 28 27 27 30 33 39 35 33 33 20 21
31 41 40 37 36 35 33 32 29 32 33 30 30 28 34 36 38 44 50 48 43 46 45 40 31 33 38 43 38 37 28 22
39 36 45 40 38 35 34 33 31 30 29 28 28 26 27 30 34 43 44 50 52 51 42 36 38 32 32 42 44 41 37 22
59 36 38 43 41 40 37 36 34 33 33 32 32 24 26 29 31 46 62 63 66 44 41 43 39 32 29 33 45 43 36 24
62 53 35 39 43 42 40 39 36 35 34 34 33 32 25 31 32 39 74 85 72 53 49 48 43 32 29 29 43 49 39 24
68 60 49 43 45 43 40 38 38 38 36 36 34 35 29 27 30 41 49 70 75 48 56 49 42 34 30 32 39 48 41 23
82 80 64 53 51 50 49 45 40 40 41 39 37 36 31 29 35 36 46 56 59 52 52 48 47 38 30 29 36 50 44 24
97 98 88 74 66 70 64 55 48 48 45 43 40 36 37 34 36 39 47 52 54 58 57 56 56 49 37 32 37 49 46 26
100 100 98 98 83 83 84 78 75 64 54 48 47 47 41 36 42 42 48 50 57 58 61 60 60 57 54 40 40 50 48 29
100 97 93 89 84 84 81 76 69 65 62 62 57 52 51 49 49 50 52 52 53 59 58 57 56 62 59 52 40 53 50 31
99 99 94 84 84 89 74 71 64 62 59 55 52 50 47 45 43 41 38 41 46 57 62 60 61 67 68 58 43 53 51 32
96 98 98 98 96 74 72 66 62 63 66 61 52 46 41 38 36 34 33 33 38 49 67 68 74 78 75 62 58 56 51 31
76 83 96 87 75 71 50 63 63 71 64 53 69 87 98 79 56 65 56 65 52 65 69 77 84 84 80 70 61 59 51 30
53 50 78 78 79 87 100 97 95 100 100 100 98 99 98 99 99 99 76 82 82 82 77 81 91 90 86 93 82 77 50 34
76 58 46 58 77 83 83 85 89 94 92 93 95 99 99 96 97 87 100 100 98 96 90 87 88 84 100 97 87 98 49 42
66 68 50 41 35 38 49 66 71 72 76 82 81 78 88 96 99 99 87 97 93 88 82 77 96 98 100 99 100 99 59 44
65 57 56 46 38 34 36 49 58 68 71 75 90 95 99 100 99 99 100 99 100 98 100 99 100 100 100 91 100 100 81 55

GFSFLT1_700_rhum_117.txt.gz
RH
4 7 8 32 38 51 67 69 56 58 62 56 28 28 29 29 29 46 28 23 22 24 24 25 29 29 26 26 27 26 23 19
9 6 10 20 39 37 52 66 70 71 71 46 26 28 27 29 48 56 44 45 27 23 25 26 26 27 34 32 31 30 30 25
16 8 8 11 39 36 35 53 69 80 80 38 42 52 38 36 62 57 48 45 48 28 25 27 27 28 29 35 39 37 35 36
24 19 16 16 40 37 35 40 65 79 88 51 53 50 51 64 62 52 45 49 50 47 43 37 34 31 29 32 37 43 42 40
54 45 32 30 39 38 47 60 63 80 92 61 45 42 38 40 50 49 40 46 51 55 50 52 46 40 37 35 35 39 45 43
79 52 63 43 42 40 38 42 70 82 65 60 44 44 44 40 31 36 39 39 51 58 64 56 47 40 38 37 38 36 39 48
59 60 68 48 47 44 40 37 36 38 49 48 47 38 36 34 33 26 30 33 51 74 69 66 49 45 43 44 37 34 35 40
63 88 62 53 40 44 44 41 37 34 34 34 34 32 32 32 34 33 27 30 37 61 59 67 68 54 49 43 37 32 33 34
94 100 71 53 41 40 41 43 42 41 39 38 37 38 40 39 37 35 32 32 37 52 48 69 87 60 51 49 44 34 31 31
99 97 98 69 49 40 47 44 44 42 40 39 39 39 41 41 40 35 33 36 38 43 51 66 85 60 55 57 55 47 30 29
99 100 99 100 94 67 55 50 50 46 44 42 42 45 46 46 46 40 45 46 54 52 57 62 65 64 63 62 58 54 53 48
100 100 100 100 99 99 90 72 62 59 59 56 56 55 55 54 50 48 50 51 60 64 64 58 64 69 70 62 60 56 54 59
98 98 99 100 95 93 95 90 84 79 74 71 66 63 60 56 56 53 52 52 58 57 60 60 66 70 72 72 68 60 65 67
99 98 98 100 100 95 93 88 84 80 74 69 65 60 58 56 55 53 50 46 44 45 52 58 65 72 72 74 75 71 77 74
97 98 99 99 96 90 98 79 84 70 67 62 59 58 57 56 54 54 46 42 40 38 39 45 55 68 77 84 80 80 94 86
98 97 95 98 100 99 100 81 93 80 71 90 96 94 77 74 57 61 88 77 61 83 98 64 63 66 68 76 75 88 96 96
57 66 75 84 88 85 80 81 82 89 92 90 92 98 100 97 100 96 100 97 100 98 97 90 87 94 92 84 85 82 93 99
52 44 40 38 36 39 51 60 62 65 72 80 84 85 84 83 99 100 99 100 100 100 100 96 95 94 90 87 92 100 94 100
55 49 44 41 36 32 31 33 32 33 44 66 78 86 91 96 98 99 100 100 100 96 92 98 99 95 82 100 95 95 100 100

GFSFLT1_700_rhum_120.txt.gz
RH
37 7 18 25 3 6 36 52 69 59 37 33 32 30 38 36 34 29 28 25 23 24 25 27 28 26 25 23 24 24 24 29
41 34 11 26 7 4 15 42 54 69 43 36 34 35 45 27 37 36 30 28 25 24 24 25 26 26 28 30 29 28 29 29
52 48 39 50 25 3 7 36 44 57 54 38 36 46 52 28 52 39 30 47 31 29 26 25 25 26 26 26 28 34 36 35
56 45 40 28 21 7 6 25 42 44 62 43 42 57 59 31 45 40 41 53 48 47 46 30 27 27 26 28 28 30 33 39
86 62 38 38 26 9 14 17 41 40 54 62 52 68 52 30 31 34 53 60 51 48 50 47 43 36 33 37 37 34 34 32
100 79 62 56 29 18 31 20 35 40 43 68 60 70 70 60 49 61 72 70 57 54 54 53 51 50 48 44 40 39 40 42
98 100 100 85 76 41 50 36 38 39 47 58 76 83 72 44 47 52 59 53 57 62 69 76 71 60 54 49 42 44 45 46
99 100 100 81 97 72 59 42 41 57 66 68 76 72 59 52 45 38 37 40 44 38 40 45 83 69 66 57 54 47 45 43
100 98 100 100 94 80 70 48 41 64 80 82 81 90 80 51 48 40 38 32 31 31 33 42 82 86 84 80 78 62 48 45
98 100 100 97 79 73 90 69 49 42 40 68 67 53 47 45 42 36 35 33 33 36 33 38 50 76 74 74 80 79 53 56
99 99 100 99 94 76 82 97 76 51 47 50 42 38 37 36 38 41 43 43 41 38 40 46 56 56 65 78 82 86 71 66
99 100 100 100 100 99 98 81 71 59 54 48 47 45 41 40 41 42 45 45 52 47 46 52 55 61 67 82 99 98 87 74
97 100 99 100 100 99 98 92 81 72 60 56 52 50 49 57 53 50 50 54 60 57 60 64 66 69 75 75 81 86 79 76
97 98 99 100 100 96 95 92 92 92 83 74 69 67 65 65 63 62 64 64 66 67 68 65 63 62 71 73 79 74 73 77
96 96 98 98 100 100 90 95 96 91 84 79 75 71 69 66 63 61 60 58 56 50 54 63 68 71 72 75 74 76 74 77
97 96 96 97 99 100 98 95 90 87 87 75 65 61 62 62 59 58 61 63 64 65 56 47 44 45 48 54 65 66 75 87
73 86 96 97 97 98 96 96 92 86 86 81 72 75 82 97 86 68 78 85 77 76 75 72 80 74 94 92 100 87 83 98
47 47 47 49 48 60 47 51 67 81 79 78 77 84 91 89 95 100 97 99 98 98 100 99 97 97 100 100 100 98 96 97
57 53 50 48 44 40 39 38 33 32 36 44 66 72 80 88 94 97 98 99 99 100 99 99 98 94 98 97 95 99 100 93

GFSFLT1_700_rhum_123.txt.gz
RH
54 51 43 36 36 36 29 12 8 30 54 68 35 28 28 27 26 25 26 24 23 24 25 26 26 24 20 18 19 20 24 22
30 36 57 39 42 46 44 31 35 20 62 78 47 30 30 31 27 27 28 28 25 23 25 25 25 24 26 26 25 25 26 26
44 49 46 53 52 54 60 41 42 17 56 67 73 37 30 32 30 31 32 31 28 25 24 26 25 24 24 25 25 28 30 31
58 57 66 58 37 20 46 43 44 20 52 94 84 60 35 34 35 35 35 35 32 29 28 26 25 25 26 25 25 26 30 32
70 67 78 73 65 32 44 36 19 37 25 90 96 76 40 34 35 43 37 30 34 30 38 30 38 28 27 27 28 27 28 28
73 72 86 83 62 45 36 30 18 17 50 69 99 85 59 36 36 50 43 35 32 37 45 47 47 47 34 33 33 36 40 40
80 87 91 92 92 66 57 30 22 17 82 71 83 84 92 44 38 57 47 40 36 57 58 48 52 52 50 49 48 48 46 42
87 86 92 92 98 99 99 67 42 19 90 68 83 73 98 59 46 75 50 53 55 72 74 74 72 68 69 62 59 55 49 47
87 92 94 97 99 100 100 97 92 35 93 57 69 67 90 97 75 98 80 64 66 54 44 43 45 45 57 81 72 62 57 60
93 96 97 99 98 98 100 100 99 55 98 73 75 67 80 96 100 77 66 69 46 39 40 44 43 44 47 70 89 77 78 80
96 96 99 99 98 99 100 100 97 97 97 99 96 94 99 99 100 80 79 54 49 41 39 37 39 38 41 46 70 79 80 91
95 96 98 100 100 99 100 99 88 88 100 99 99 100 100 95 79 77 86 71 57 57 48 45 42 41 48 49 51 60 80 90
96 96 98 100 100 100 100 100 91 81 92 95 79 75 95 90 98 99 86 71 57 53 51 48 50 50 51 57 62 75 77 81
96 97 98 98 99 100 99 86 92 94 89 93 93 79 89 90 82 75 63 56 51 48 48 56 55 56 53 54 60 66 70 79
96 96 97 98 99 99 100 100 88 93 99 99 84 76 73 70 68 64 61 61 61 61 65 66 66 64 63 69 64 66 66 65
95 96 97 96 97 98 99 99 99 98 99 95 80 75 73 72 72 68 64 62 61 62 62 59 56 60 72 76 77 77 77 75
72 90 95 96 92 96 97 99 95 95 90 77 78 72 62 61 60 55 54 65 64 64 63 64 63 66 66 59 52 51 52 53
58 53 48 46 58 38 38 46 55 64 66 72 69 66 67 71 94 98 99 100 98 99 100 99 100 98 98 98 99 99 100 100
67 66 63 59 56 53 49 47 42 36 30 27 29 43 59 72 78 82 85 89 88 94 94 99 99 99 100 100 95 93 87 95